SCP
0 0 0 0 0 0 0 0 0 0 0 0 0 0 0 0 0 0 0 -0 0 0 -0 0 0 -0 -0 -0 -0 -1 -1 -0 -0 -0 -0 -0 -0 -0 -0 -0 -0 -0 -0 0 0 0 0 0 0
0 0 0 0 0 0 0 0 0 0 0 0 0 0 0 0 1 0 0 0 0 0 0 0 0 -0 -0 -1 -1 -1 -0 -0 -0 -0 -0 -0 -0 -0 -0 -0 -0 -0 0 0 0 0 0 0 0
0 0 0 0 0 0 0 0 0 0 0 0 0 0 0 1 1 1 1 0 0 0 0 0 0 0 -0 -0 -0 -1 -1 -0 -0 -0 -0 -0 -0 -0 -0 -0 -0 0 0 0 0 0 0 0 0
0 0 0 0 0 0 0 0 0 0 0 0 0 0 0 0 1 2 0 0 0 1 0 0 1 1 0 0 -0 -0 -0 -0 -0 -0 -0 -0 -0 -0 -0 -0 0 0 0 0 0 0 0 0 0
0 0 0 0 0 0 0 0 0 0 0 0 0 0 0 1 1 1 1 0 0 0 1 1 1 1 1 0 0 0 0 -0 -0 -0 -0 -0 -0 -0 -0 -0 0 0 0 0 0 0 0 0 0
0 0 0 0 0 0 0 0 0 0 0 0 0 0 0 0 2 1 0 0 0 1 1 1 1 1 1 1 1 1 0 0 0 0 0 0 0 0 0 0 0 0 0 0 0 0 -0 -0 -0
0 0 0 0 0 0 0 0 0 0 0 0 0 0 0 0 2 1 1 1 0 1 1 1 0 1 1 1 1 1 1 0 0 0 0 0 0 0 0 0 0 0 -0 -0 -0 -0 -0 -0 -0
0 0 0 0 0 0 0 0 0 0 0 0 0 0 0 0 1 1 1 1 1 1 1 1 1 0 0 0 1 1 1 1 0 0 0 0 0 0 0 0 0 0 0 0 -0 -0 -0 -0 -0
0 0 0 0 0 0 0 0 0 0 0 0 0 0 0 0 1 3 1 1 1 1 1 1 1 0 0 0 1 1 1 1 1 1 1 0 0 0 0 0 0 0 0 0 0 0 -0 -0 -0
0 0 0 0 0 0 0 0 0 0 0 0 0 0 0 0 0 1 2 1 1 1 1 1 1 1 0 0 0 0 0 0 0 0 0 0 0 0 0 0 0 0 0 0 0 0 0 0 -0
0 0 0 0 0 0 0 0 0 0 0 0 0 0 0 0 0 0 0 1 1 1 1 0 1 1 0 0 0 0 0 0 0 0 0 0 0 0 0 0 0 0 0 0 0 0 0 0 0
0 0 0 0 0 0 0 0 0 0 0 0 0 0 0 0 0 0 0 1 1 1 1 1 1 1 0 0 -0 -0 0 0 0 1 1 0 0 0 0 0 0 0 0 0 0 0 0 0 0
0 0 0 0 0 0 0 0 0 0 0 0 0 0 0 0 0 0 0 0 0 1 1 1 0 0 0 -0 -0 -0 -0 0 0 0 1 1 1 1 0 0 0 0 0 0 0 0 0 0 0
0 0 0 0 0 0 0 0 0 0 -0 0 0 0 0 0 0 0 0 0 1 1 1 1 1 1 0 -0 1 1 1 1 0 1 1 1 1 1 1 1 1 1 0 0 0 0 0 0 0
0 0 0 0 0 0 0 0 0 0 0 -0 -0 0 0 0 0 0 0 0 0 0 0 1 0 0 0 1 1 1 1 1 1 1 3 2 2 2 1 1 1 1 1 1 1 1 1 0 0
0 0 0 0 0 0 0 0 0 0 -0 -0 -0 -0 0 0 0 0 0 0 0 0 0 -0 0 -0 -1 1 1 2 2 2 1 1 1 1 1 2 2 1 1 1 1 1 1 1 1 1 1
0 0 0 0 0 0 0 0 0 0 0 0 0 -0 0 0 0 0 0 0 0 0 0 1 1 1 1 0 1 0 2 3 2 2 2 2 2 1 1 2 2 1 1 1 1 1 1 1 2
0 0 0 0 0 0 0 0 0 0 0 0 0 0 0 0 0 0 0 0 0 0 0 0 1 6 4 2 -0 1 2 2 2 2 2 2 3 5 3 1 1 2 1 1 2 2 2 2 2
0 0 0 0 0 0 0 0 0 0 0 0 0 0 0 0 0 0 0 0 0 0 0 0 1 4 7 3 1 -1 1 3 2 2 2 2 1 1 3 2 2 2 1 1 3 4 2 3 3
0 0 0 0 0 0 0 0 0 0 0 0 0 0 0 0 0 0 0 0 0 0 1 2 1 2 2 2 1 1 0 0 1 1 2 2 1 1 2 2 3 2 3 3 2 3 3 2 2
0 0 0 0 0 0 0 0 0 0 0 0 0 0 0 0 0 0 0 0 0 0 1 1 2 2 1 1 1 1 1 1 1 0 1 1 1 1 1 1 1 2 3 3 2 2 2 1 1
0 0 0 0 0 0 0 0 0 0 0 0 0 0 0 0 0 0 0 0 0 0 0 0 0 0 0 1 2 1 1 2 3 2 2 2 2 1 1 1 2 2 2 2 2 1 1 1 1
0 0 0 0 0 0 0 0 0 0 0 0 0 0 0 0 0 0 0 0 0 0 0 0 0 0 0 0 0 0 1 0 0 0 0 0 0 1 1 1 1 2 2 2 2 2 2 1 2
0 0 0 0 0 0 0 0 0 0 0 0 0 0 0 0 0 0 0 0 0 0 0 0 0 0 0 0 0 0 0 0 0 0 0 0 0 0 0 0 0 1 2 2 2 3 3 4 3
0 0 0 0 0 0 0 0 0 0 0 0 0 0 0 0 0 0 0 0 0 0 0 0 0 0 0 0 0 0 0 0 0 0 0 0 0 0 0 0 0 0 0 0 2 4 4 4 4
0 0 0 0 0 0 0 0 0 0 0 0 0 0 0 0 0 0 0 0 0 0 0 0 0 0 0 0 0 0 0 0 0 0 0 0 0 0 0 0 0 0 0 0 0 0 1 3 4
0 0 0 0 0 0 0 0 0 0 0 0 0 0 0 0 0 0 0 0 0 0 0 0 0 0 0 0 0 0 0 0 0 0 0 0 0 0 0 0 0 0 0 0 0 0 1 3 4
0 0 0 0 0 0 0 0 0 0 0 0 0 0 0 0 0 0 0 0 0 0 0 0 0 0 0 0 0 0 0 0 0 0 0 0 0 0 0 0 0 0 0 0 0 0 0 1 2
0 0 0 0 0 0 0 0 0 0 0 0 0 0 0 0 0 0 0 0 0 0 0 0 0 0 0 0 0 0 0 0 0 0 0 0 0 0 0 0 0 0 0 0 0 0 0 0 1
0 0 0 0 0 0 0 0 0 0 0 0 0 0 0 0 0 0 0 0 0 0 0 0 0 0 0 0 0 0 0 0 0 0 0 0 0 0 0 0 0 0 0 0 0 0 0 0 0
Wind_Speed_500mb
16 14 11 10 14 13 27 17 6 11 10 7 14 13 21 23 12 11 13 5 21 38 45 48 42 39 37 37 36 44 46 42 36 30 22 19 20 27 29 32 31 30 29 26 24 24 26 28 27
10 12 13 11 16 27 25 25 22 6 4 9 13 18 14 6 12 11 8 7 27 41 43 45 43 37 36 36 37 47 47 42 35 29 22 20 22 27 29 31 30 27 25 24 24 25 27 27 27
15 19 22 11 24 33 29 17 27 11 4 8 10 9 9 12 14 13 11 12 32 38 43 43 42 40 37 35 43 48 46 39 32 27 24 22 24 28 30 29 28 25 24 24 26 26 27 28 25
14 16 14 21 33 31 33 12 11 13 8 4 15 10 8 10 15 12 5 21 34 37 38 43 44 43 40 38 42 45 42 37 32 28 26 23 26 30 30 29 27 24 24 25 25 26 27 27 25
19 15 20 29 42 38 10 23 22 18 19 17 16 14 22 7 11 4 13 22 30 34 35 46 45 43 42 42 41 41 39 36 33 30 27 24 28 32 31 28 26 25 25 25 25 26 26 26 24
22 18 17 32 39 27 20 30 31 29 33 29 25 22 9 9 9 2 13 20 27 34 33 45 46 44 43 42 40 38 35 32 31 29 26 25 30 33 32 29 27 26 25 25 26 26 26 24 21
31 19 29 32 24 24 18 17 28 28 23 26 20 21 7 7 4 6 14 21 29 33 33 38 47 46 42 40 39 36 34 31 29 26 25 26 30 32 32 30 27 26 27 26 25 25 26 25 22
26 15 31 26 26 31 9 18 11 17 20 12 16 14 12 8 5 5 13 23 30 34 32 32 37 45 45 42 39 36 33 31 27 24 24 26 31 33 33 31 29 28 27 28 27 26 25 24 23
18 17 25 34 23 21 8 13 8 7 14 15 19 19 12 11 4 7 15 23 30 33 32 32 34 36 37 35 42 38 36 34 29 26 25 26 31 35 36 35 33 30 28 28 30 29 28 26 26
28 22 29 17 15 17 10 13 14 10 21 24 25 33 26 14 13 11 17 26 32 33 33 32 34 36 37 35 37 42 41 39 37 32 31 32 32 34 32 34 34 32 30 30 31 32 32 32 28
30 29 22 18 20 17 22 17 12 22 23 27 32 30 25 15 17 20 24 23 28 28 29 33 36 36 37 36 36 40 41 42 43 39 35 33 31 31 35 30 38 35 34 32 33 35 37 38 29
21 37 22 19 11 17 17 14 18 20 28 28 31 34 29 25 23 25 24 21 26 26 25 25 31 41 44 36 37 36 36 37 35 39 40 35 35 32 32 32 30 38 31 34 33 28 36 37 38
33 23 22 26 21 19 18 24 20 28 26 29 26 30 31 28 27 26 29 21 21 17 17 18 23 28 42 51 39 35 35 34 32 32 36 37 34 32 32 31 31 32 30 32 33 31 31 35 43
18 34 25 21 24 18 20 20 9 27 27 25 27 29 30 28 28 27 32 29 20 12 11 13 9 19 31 40 49 52 45 36 34 33 32 43 37 34 31 33 31 30 30 30 30 30 30 31 31
18 23 30 31 30 19 21 24 22 20 11 19 23 27 25 24 29 30 33 35 22 10 9 11 12 9 14 30 39 38 39 48 54 44 51 45 47 49 44 33 33 31 31 35 35 33 32 37 32
25 26 28 31 23 17 22 11 13 3 19 21 21 27 24 22 34 35 35 33 36 41 26 17 16 12 21 25 29 35 39 43 40 50 56 58 33 32 47 46 40 37 35 35 34 34 34 34 31
23 25 29 24 21 16 24 8 9 14 11 18 23 25 32 30 27 34 37 38 44 44 45 39 37 34 25 31 30 35 42 42 41 40 46 53 42 38 39 50 48 49 47 41 38 37 40 39 37
27 27 20 21 20 19 23 25 20 13 13 21 25 29 29 33 33 28 33 40 41 35 37 34 49 56 50 30 33 38 48 47 43 46 56 45 50 55 34 51 56 50 47 42 40 40 42 41 36
13 17 20 14 9 15 23 15 18 5 14 17 22 32 32 28 15 15 19 32 28 21 31 22 24 43 42 40 56 43 47 48 43 42 51 55 56 49 54 69 72 56 61 43 42 38 49 41 39
26 27 27 21 20 21 20 20 15 9 5 3 8 22 34 20 12 5 12 17 23 22 40 35 24 29 32 48 54 66 32 31 36 34 35 50 58 46 53 63 62 51 53 52 51 54 49 47 43
30 29 23 21 12 21 18 27 24 19 12 7 7 9 13 18 16 14 16 18 17 14 29 41 42 42 42 42 39 35 32 31 28 23 29 31 36 45 56 62 56 49 47 50 48 49 47 49 60
33 26 30 26 24 25 29 23 32 20 17 9 13 15 20 24 21 21 22 24 23 18 20 25 26 26 30 29 25 25 20 18 23 14 17 19 21 23 32 32 30 30 37 44 49 51 55 53 57
35 30 27 27 29 29 25 18 8 20 19 15 16 20 24 24 22 23 25 25 26 24 24 23 21 20 19 17 15 17 14 12 13 10 16 20 24 27 23 25 25 29 39 45 48 47 51 50 56
27 20 16 19 23 26 33 21 24 23 24 19 19 22 24 25 26 26 27 27 26 25 24 19 17 15 13 10 9 11 13 14 19 23 24 19 24 25 34 40 40 39 40 43 47 52 53 54 52
26 26 17 19 20 21 25 16 29 18 17 20 23 28 28 27 26 25 24 22 19 17 16 13 6 1 4 8 13 19 23 28 32 36 33 40 34 32 33 50 52 53 54 57 56 57 60 60 60
34 34 19 18 18 24 19 18 9 13 10 27 28 29 27 25 22 19 17 17 13 14 11 9 9 15 20 26 31 36 40 43 47 47 57 62 65 65 66 72 75 75 72 67 64 64 65 67 70
24 26 18 15 9 15 17 10 13 16 18 27 32 30 25 21 17 14 12 13 14 14 14 16 19 24 30 35 41 47 51 56 60 66 69 71 75 77 76 83 87 88 86 81 76 68 71 74 78
18 18 15 17 18 24 20 24 13 25 31 31 29 30 25 20 14 10 8 10 11 13 17 21 26 32 38 42 45 47 52 53 57 59 59 61 65 69 75 74 72 73 71 67 67 73 77 79 86
17 24 20 16 16 12 21 10 23 21 33 33 30 29 24 18 12 7 5 8 10 14 17 23 27 32 34 37 41 44 45 47 50 53 51 50 48 51 53 56 58 60 59 57 60 65 71 79 79
20 23 26 16 24 16 20 16 4 2 21 31 30 25 21 15 9 4 5 10 14 18 21 24 27 29 30 31 33 32 33 34 37 40 44 47 50 51 52 53 55 56 56 57 59 64 65 71 78
Wind_Direction_500mb
228 225 219 233 243 233 247 239 297 179 186 23 318 293 315 302 331 351 337 191 166 170 174 181 181 182 180 178 181 186 182 180 175 169 162 158 160 165 161 159 155 157 159 157 156 154 147 143 139
209 194 196 226 244 233 232 232 218 174 9 330 307 315 286 47 6 338 335 295 164 170 174 183 183 188 181 180 179 183 181 180 179 176 171 170 170 171 166 165 165 164 164 164 160 154 150 147 145
174 183 228 222 234 243 249 175 240 186 276 345 346 327 2 14 357 342 319 159 159 166 175 187 184 186 180 176 179 178 179 181 184 187 183 180 179 177 173 171 174 171 169 164 158 154 154 155 156
170 188 239 243 239 237 257 212 178 219 210 260 347 290 343 324 330 331 127 149 160 165 169 183 183 184 180 175 174 178 181 185 190 196 193 190 187 182 179 177 175 173 171 164 160 157 157 158 160
187 219 232 237 243 249 202 253 231 263 273 258 318 288 317 4 356 35 151 151 161 165 171 179 182 184 182 179 180 183 188 192 195 199 201 201 193 187 184 181 179 178 175 171 167 165 163 162 163
199 244 228 234 239 235 241 234 250 259 267 273 276 277 295 342 346 158 176 170 170 168 172 182 181 187 186 186 186 189 193 197 199 201 208 208 198 192 189 187 185 185 185 183 179 177 177 179 181
240 219 240 251 259 261 254 224 235 248 255 258 260 264 300 351 348 134 170 175 174 172 169 179 184 187 191 192 192 193 196 199 203 209 215 210 203 199 196 195 194 195 197 198 195 193 193 197 202
238 251 246 244 246 252 186 222 243 251 257 264 241 235 185 6 14 176 168 173 171 174 175 178 181 189 191 195 197 199 198 199 203 213 217 213 206 205 206 206 205 205 208 210 211 211 209 211 216
211 236 238 236 237 248 158 230 190 256 252 243 248 255 273 302 264 193 173 172 171 175 180 181 186 186 185 195 199 200 202 202 205 206 208 210 212 210 212 214 215 214 216 222 225 225 226 226 230
213 226 243 277 256 254 241 240 269 248 251 243 245 246 253 259 237 234 195 186 179 179 184 186 189 190 188 194 201 202 206 208 210 210 208 206 205 211 207 218 222 222 225 227 232 234 238 241 241
212 240 242 243 253 263 274 264 244 243 248 253 249 241 214 231 241 233 213 204 194 190 193 188 201 192 194 197 202 202 207 209 215 215 214 205 204 210 214 216 224 230 232 235 237 236 238 241 243
234 234 251 263 241 244 251 271 251 245 260 259 251 226 228 246 242 225 218 198 193 200 206 214 215 209 206 204 211 212 212 212 211 215 217 211 212 214 213 222 228 231 227 238 234 240 237 242 242
230 248 238 239 242 246 261 264 278 266 257 251 237 222 236 238 239 224 207 185 170 178 201 216 222 226 224 217 212 213 220 225 220 221 223 216 217 218 221 222 226 235 232 236 234 239 245 254 258
197 237 239 240 241 226 238 254 251 262 242 224 220 230 230 236 221 197 189 182 157 144 182 206 226 255 234 227 234 229 221 215 226 224 222 232 226 225 224 231 235 237 241 237 241 245 246 256 258
241 244 235 232 230 222 228 245 232 261 193 214 223 226 221 221 193 183 181 182 182 181 248 288 219 246 302 256 237 237 235 243 243 233 240 236 236 237 242 237 238 240 245 246 243 245 252 256 259
228 231 245 204 186 181 211 216 170 124 209 227 214 209 207 200 195 196 206 219 226 243 240 240 249 242 305 287 249 241 240 237 233 246 244 242 246 260 268 254 248 248 247 250 253 253 252 255 259
208 237 212 163 196 155 214 239 218 210 245 241 230 221 222 218 199 209 216 220 228 236 223 242 255 260 280 297 268 254 246 243 240 239 247 247 239 248 273 284 256 260 266 261 254 249 249 247 250
209 225 219 237 158 210 219 242 252 225 233 243 239 235 223 225 217 219 216 221 230 229 247 244 251 236 250 289 290 278 255 254 244 243 250 246 245 226 262 273 270 258 266 254 246 244 243 243 241
259 236 245 229 193 254 245 275 250 211 233 240 246 241 234 228 241 233 219 219 219 223 218 219 249 234 223 225 281 282 270 253 255 249 245 253 257 254 236 242 254 252 266 266 257 255 252 236 236
232 238 240 249 244 227 242 250 229 219 169 344 310 236 212 200 177 134 171 183 200 204 203 207 212 214 225 213 240 257 259 259 258 256 258 255 251 247 247 250 240 251 260 256 250 247 243 246 243
230 242 244 252 166 226 255 244 216 179 176 111 89 145 158 146 143 127 137 145 146 155 205 213 219 226 233 238 244 242 242 252 259 261 256 253 253 259 260 256 238 256 250 251 253 250 241 250 258
234 219 250 251 226 229 195 249 185 187 170 119 100 108 112 114 122 125 117 114 118 135 186 214 220 216 215 208 208 206 214 224 217 231 230 230 240 253 262 255 252 258 255 254 260 255 250 260 250
237 233 227 243 233 248 193 242 179 164 188 146 115 106 109 115 119 114 109 103 103 121 129 138 144 151 153 167 181 185 183 202 221 235 253 255 260 258 262 275 272 261 253 252 256 255 260 248 249
219 200 213 219 221 226 232 212 231 181 197 150 134 125 125 124 117 111 104 98 93 96 97 111 118 130 140 165 197 219 240 250 253 261 270 271 269 275 269 262 256 248 248 252 252 254 250 249 251
210 213 203 203 209 232 211 195 251 94 135 166 150 137 132 130 122 114 106 95 88 78 85 86 95 34 307 298 290 289 289 292 291 289 288 279 283 278 272 274 270 264 260 257 253 252 251 250 252
202 215 235 229 222 217 155 216 210 95 200 143 149 140 136 132 124 113 99 91 72 52 39 27 339 316 305 300 299 298 296 293 290 286 284 285 285 282 278 276 276 276 274 270 265 263 259 255 253
206 225 258 254 230 261 197 153 150 146 146 155 155 153 144 137 125 107 83 63 42 16 342 328 315 307 301 298 296 294 291 287 286 283 283 282 279 279 279 276 276 275 275 273 271 268 261 256 253
204 243 202 225 239 241 247 226 230 179 177 175 169 165 157 151 137 112 80 43 23 357 342 322 313 307 303 298 294 290 289 290 289 289 289 286 284 282 280 280 279 278 276 274 270 266 266 261 253
176 212 225 241 221 247 261 262 2 190 181 179 178 170 167 160 145 112 56 16 359 347 336 329 320 312 309 305 300 299 299 298 297 296 295 292 290 290 289 287 286 282 280 277 273 269 263 257 256
252 226 217 215 231 250 276 273 47 254 167 182 173 178 172 166 147 95 6 346 341 334 328 323 319 317 312 309 308 307 306 305 303 300 298 296 295 293 290 287 283 281 279 277 275 271 264 262 260
Wind_Speed_850mb
16 14 11 10 14 13 27 17 6 11 10 7 14 13 21 23 12 11 13 5 21 38 45 48 42 39 37 37 36 44 46 42 36 30 22 19 20 27 29 32 31 30 29 26 24 24 26 28 27
10 12 13 11 16 27 25 25 22 6 4 9 13 18 14 6 12 11 8 7 27 41 43 45 43 37 36 36 37 47 47 42 35 29 22 20 22 27 29 31 30 27 25 24 24 25 27 27 27
15 19 22 11 24 33 29 17 27 11 4 8 10 9 9 12 14 13 11 12 32 38 43 43 42 40 37 35 43 48 46 39 32 27 24 22 24 28 30 29 28 25 24 24 26 26 27 28 25
14 16 14 21 33 31 33 12 11 13 8 4 15 10 8 10 15 12 5 21 34 37 38 43 44 43 40 38 42 45 42 37 32 28 26 23 26 30 30 29 27 24 24 25 25 26 27 27 25
19 15 20 29 42 38 10 23 22 18 19 17 16 14 22 7 11 4 13 22 30 34 35 46 45 43 42 42 41 41 39 36 33 30 27 24 28 32 31 28 26 25 25 25 25 26 26 26 24
22 18 17 32 39 27 20 30 31 29 33 29 25 22 9 9 9 2 13 20 27 34 33 45 46 44 43 42 40 38 35 32 31 29 26 25 30 33 32 29 27 26 25 25 26 26 26 24 21
31 19 29 32 24 24 18 17 28 28 23 26 20 21 7 7 4 6 14 21 29 33 33 38 47 46 42 40 39 36 34 31 29 26 25 26 30 32 32 30 27 26 27 26 25 25 26 25 22
26 15 31 26 26 31 9 18 11 17 20 12 16 14 12 8 5 5 13 23 30 34 32 32 37 45 45 42 39 36 33 31 27 24 24 26 31 33 33 31 29 28 27 28 27 26 25 24 23
18 17 25 34 23 21 8 13 8 7 14 15 19 19 12 11 4 7 15 23 30 33 32 32 34 36 37 35 42 38 36 34 29 26 25 26 31 35 36 35 33 30 28 28 30 29 28 26 26
28 22 29 17 15 17 10 13 14 10 21 24 25 33 26 14 13 11 17 26 32 33 33 32 34 36 37 35 37 42 41 39 37 32 31 32 32 34 32 34 34 32 30 30 31 32 32 32 28
30 29 22 18 20 17 22 17 12 22 23 27 32 30 25 15 17 20 24 23 28 28 29 33 36 36 37 36 36 40 41 42 43 39 35 33 31 31 35 30 38 35 34 32 33 35 37 38 29
21 37 22 19 11 17 17 14 18 20 28 28 31 34 29 25 23 25 24 21 26 26 25 25 31 41 44 36 37 36 36 37 35 39 40 35 35 32 32 32 30 38 31 34 33 28 36 37 38
33 23 22 26 21 19 18 24 20 28 26 29 26 30 31 28 27 26 29 21 21 17 17 18 23 28 42 51 39 35 35 34 32 32 36 37 34 32 32 31 31 32 30 32 33 31 31 35 43
18 34 25 21 24 18 20 20 9 27 27 25 27 29 30 28 28 27 32 29 20 12 11 13 9 19 31 40 49 52 45 36 34 33 32 43 37 34 31 33 31 30 30 30 30 30 30 31 31
18 23 30 31 30 19 21 24 22 20 11 19 23 27 25 24 29 30 33 35 22 10 9 11 12 9 14 30 39 38 39 48 54 44 51 45 47 49 44 33 33 31 31 35 35 33 32 37 32
25 26 28 31 23 17 22 11 13 3 19 21 21 27 24 22 34 35 35 33 36 41 26 17 16 12 21 25 29 35 39 43 40 50 56 58 33 32 47 46 40 37 35 35 34 34 34 34 31
23 25 29 24 21 16 24 8 9 14 11 18 23 25 32 30 27 34 37 38 44 44 45 39 37 34 25 31 30 35 42 42 41 40 46 53 42 38 39 50 48 49 47 41 38 37 40 39 37
27 27 20 21 20 19 23 25 20 13 13 21 25 29 29 33 33 28 33 40 41 35 37 34 49 56 50 30 33 38 48 47 43 46 56 45 50 55 34 51 56 50 47 42 40 40 42 41 36
13 17 20 14 9 15 23 15 18 5 14 17 22 32 32 28 15 15 19 32 28 21 31 22 24 43 42 40 56 43 47 48 43 42 51 55 56 49 54 69 72 56 61 43 42 38 49 41 39
26 27 27 21 20 21 20 20 15 9 5 3 8 22 34 20 12 5 12 17 23 22 40 35 24 29 32 48 54 66 32 31 36 34 35 50 58 46 53 63 62 51 53 52 51 54 49 47 43
30 29 23 21 12 21 18 27 24 19 12 7 7 9 13 18 16 14 16 18 17 14 29 41 42 42 42 42 39 35 32 31 28 23 29 31 36 45 56 62 56 49 47 50 48 49 47 49 60
33 26 30 26 24 25 29 23 32 20 17 9 13 15 20 24 21 21 22 24 23 18 20 25 26 26 30 29 25 25 20 18 23 14 17 19 21 23 32 32 30 30 37 44 49 51 55 53 57
35 30 27 27 29 29 25 18 8 20 19 15 16 20 24 24 22 23 25 25 26 24 24 23 21 20 19 17 15 17 14 12 13 10 16 20 24 27 23 25 25 29 39 45 48 47 51 50 56
27 20 16 19 23 26 33 21 24 23 24 19 19 22 24 25 26 26 27 27 26 25 24 19 17 15 13 10 9 11 13 14 19 23 24 19 24 25 34 40 40 39 40 43 47 52 53 54 52
26 26 17 19 20 21 25 16 29 18 17 20 23 28 28 27 26 25 24 22 19 17 16 13 6 1 4 8 13 19 23 28 32 36 33 40 34 32 33 50 52 53 54 57 56 57 60 60 60
34 34 19 18 18 24 19 18 9 13 10 27 28 29 27 25 22 19 17 17 13 14 11 9 9 15 20 26 31 36 40 43 47 47 57 62 65 65 66 72 75 75 72 67 64 64 65 67 70
24 26 18 15 9 15 17 10 13 16 18 27 32 30 25 21 17 14 12 13 14 14 14 16 19 24 30 35 41 47 51 56 60 66 69 71 75 77 76 83 87 88 86 81 76 68 71 74 78
18 18 15 17 18 24 20 24 13 25 31 31 29 30 25 20 14 10 8 10 11 13 17 21 26 32 38 42 45 47 52 53 57 59 59 61 65 69 75 74 72 73 71 67 67 73 77 79 86
17 24 20 16 16 12 21 10 23 21 33 33 30 29 24 18 12 7 5 8 10 14 17 23 27 32 34 37 41 44 45 47 50 53 51 50 48 51 53 56 58 60 59 57 60 65 71 79 79
20 23 26 16 24 16 20 16 4 2 21 31 30 25 21 15 9 4 5 10 14 18 21 24 27 29 30 31 33 32 33 34 37 40 44 47 50 51 52 53 55 56 56 57 59 64 65 71 78
Wind_Direction_850mb
228 225 219 233 243 233 247 239 297 179 186 23 318 293 315 302 331 351 337 191 166 170 174 181 181 182 180 178 181 186 182 180 175 169 162 158 160 165 161 159 155 157 159 157 156 154 147 143 139
209 194 196 226 244 233 232 232 218 174 9 330 307 315 286 47 6 338 335 295 164 170 174 183 183 188 181 180 179 183 181 180 179 176 171 170 170 171 166 165 165 164 164 164 160 154 150 147 145
174 183 228 222 234 243 249 175 240 186 276 345 346 327 2 14 357 342 319 159 159 166 175 187 184 186 180 176 179 178 179 181 184 187 183 180 179 177 173 171 174 171 169 164 158 154 154 155 156
170 188 239 243 239 237 257 212 178 219 210 260 347 290 343 324 330 331 127 149 160 165 169 183 183 184 180 175 174 178 181 185 190 196 193 190 187 182 179 177 175 173 171 164 160 157 157 158 160
187 219 232 237 243 249 202 253 231 263 273 258 318 288 317 4 356 35 151 151 161 165 171 179 182 184 182 179 180 183 188 192 195 199 201 201 193 187 184 181 179 178 175 171 167 165 163 162 163
199 244 228 234 239 235 241 234 250 259 267 273 276 277 295 342 346 158 176 170 170 168 172 182 181 187 186 186 186 189 193 197 199 201 208 208 198 192 189 187 185 185 185 183 179 177 177 179 181
240 219 240 251 259 261 254 224 235 248 255 258 260 264 300 351 348 134 170 175 174 172 169 179 184 187 191 192 192 193 196 199 203 209 215 210 203 199 196 195 194 195 197 198 195 193 193 197 202
238 251 246 244 246 252 186 222 243 251 257 264 241 235 185 6 14 176 168 173 171 174 175 178 181 189 191 195 197 199 198 199 203 213 217 213 206 205 206 206 205 205 208 210 211 211 209 211 216
211 236 238 236 237 248 158 230 190 256 252 243 248 255 273 302 264 193 173 172 171 175 180 181 186 186 185 195 199 200 202 202 205 206 208 210 212 210 212 214 215 214 216 222 225 225 226 226 230
213 226 243 277 256 254 241 240 269 248 251 243 245 246 253 259 237 234 195 186 179 179 184 186 189 190 188 194 201 202 206 208 210 210 208 206 205 211 207 218 222 222 225 227 232 234 238 241 241
212 240 242 243 253 263 274 264 244 243 248 253 249 241 214 231 241 233 213 204 194 190 193 188 201 192 194 197 202 202 207 209 215 215 214 205 204 210 214 216 224 230 232 235 237 236 238 241 243
234 234 251 263 241 244 251 271 251 245 260 259 251 226 228 246 242 225 218 198 193 200 206 214 215 209 206 204 211 212 212 212 211 215 217 211 212 214 213 222 228 231 227 238 234 240 237 242 242
230 248 238 239 242 246 261 264 278 266 257 251 237 222 236 238 239 224 207 185 170 178 201 216 222 226 224 217 212 213 220 225 220 221 223 216 217 218 221 222 226 235 232 236 234 239 245 254 258
197 237 239 240 241 226 238 254 251 262 242 224 220 230 230 236 221 197 189 182 157 144 182 206 226 255 234 227 234 229 221 215 226 224 222 232 226 225 224 231 235 237 241 237 241 245 246 256 258
241 244 235 232 230 222 228 245 232 261 193 214 223 226 221 221 193 183 181 182 182 181 248 288 219 246 302 256 237 237 235 243 243 233 240 236 236 237 242 237 238 240 245 246 243 245 252 256 259
228 231 245 204 186 181 211 216 170 124 209 227 214 209 207 200 195 196 206 219 226 243 240 240 249 242 305 287 249 241 240 237 233 246 244 242 246 260 268 254 248 248 247 250 253 253 252 255 259
208 237 212 163 196 155 214 239 218 210 245 241 230 221 222 218 199 209 216 220 228 236 223 242 255 260 280 297 268 254 246 243 240 239 247 247 239 248 273 284 256 260 266 261 254 249 249 247 250
209 225 219 237 158 210 219 242 252 225 233 243 239 235 223 225 217 219 216 221 230 229 247 244 251 236 250 289 290 278 255 254 244 243 250 246 245 226 262 273 270 258 266 254 246 244 243 243 241
259 236 245 229 193 254 245 275 250 211 233 240 246 241 234 228 241 233 219 219 219 223 218 219 249 234 223 225 281 282 270 253 255 249 245 253 257 254 236 242 254 252 266 266 257 255 252 236 236
232 238 240 249 244 227 242 250 229 219 169 344 310 236 212 200 177 134 171 183 200 204 203 207 212 214 225 213 240 257 259 259 258 256 258 255 251 247 247 250 240 251 260 256 250 247 243 246 243
230 242 244 252 166 226 255 244 216 179 176 111 89 145 158 146 143 127 137 145 146 155 205 213 219 226 233 238 244 242 242 252 259 261 256 253 253 259 260 256 238 256 250 251 253 250 241 250 258
234 219 250 251 226 229 195 249 185 187 170 119 100 108 112 114 122 125 117 114 118 135 186 214 220 216 215 208 208 206 214 224 217 231 230 230 240 253 262 255 252 258 255 254 260 255 250 260 250
237 233 227 243 233 248 193 242 179 164 188 146 115 106 109 115 119 114 109 103 103 121 129 138 144 151 153 167 181 185 183 202 221 235 253 255 260 258 262 275 272 261 253 252 256 255 260 248 249
219 200 213 219 221 226 232 212 231 181 197 150 134 125 125 124 117 111 104 98 93 96 97 111 118 130 140 165 197 219 240 250 253 261 270 271 269 275 269 262 256 248 248 252 252 254 250 249 251
210 213 203 203 209 232 211 195 251 94 135 166 150 137 132 130 122 114 106 95 88 78 85 86 95 34 307 298 290 289 289 292 291 289 288 279 283 278 272 274 270 264 260 257 253 252 251 250 252
202 215 235 229 222 217 155 216 210 95 200 143 149 140 136 132 124 113 99 91 72 52 39 27 339 316 305 300 299 298 296 293 290 286 284 285 285 282 278 276 276 276 274 270 265 263 259 255 253
206 225 258 254 230 261 197 153 150 146 146 155 155 153 144 137 125 107 83 63 42 16 342 328 315 307 301 298 296 294 291 287 286 283 283 282 279 279 279 276 276 275 275 273 271 268 261 256 253
204 243 202 225 239 241 247 226 230 179 177 175 169 165 157 151 137 112 80 43 23 357 342 322 313 307 303 298 294 290 289 290 289 289 289 286 284 282 280 280 279 278 276 274 270 266 266 261 253
176 212 225 241 221 247 261 262 2 190 181 179 178 170 167 160 145 112 56 16 359 347 336 329 320 312 309 305 300 299 299 298 297 296 295 292 290 290 289 287 286 282 280 277 273 269 263 257 256
252 226 217 215 231 250 276 273 47 254 167 182 173 178 172 166 147 95 6 346 341 334 328 323 319 317 312 309 308 307 306 305 303 300 298 296 295 293 290 287 283 281 279 277 275 271 264 262 260